Location: Newark
(23.3970°S, 47.6010°W)
Time: 11:12:47
(UTC+00:00)

ISS - Visible Passes

Search period start: 22 January 2020 00:00
Search period end: 01 February 2020 00:00
Orbit: 415 x 421 km, 51.6° (Epoch: 22 January)

Date Brightness Start Highest point End Pass type
(mag) Time Alt. Az. Time Alt. Az. Time Alt. Az.
22 Jan -1.4 07:12:52 14° NNE 07:14:19 17° NE 07:16:36 10° E visible
23 Jan -3.2 08:00:14 14° WNW 08:02:52 45° SW 08:06:09 10° SSE visible
24 Jan -3.9 07:14:32 67° NNW 07:14:53 79° NE 07:18:17 10° SE visible
25 Jan -1.1 06:28:44 20° ESE 06:28:44 20° ESE 06:30:04 10° ESE visible
25 Jan -1.4 08:02:07 10° WSW 08:03:47 13° SW 08:05:29 10° SSW visible
26 Jan -2.1 07:15:48 23° SW 07:15:48 23° SW 07:18:28 10° S visible
27 Jan -1.0 06:29:51 18° SSE 06:29:51 18° SSE 06:30:53 10° SSE visible
